| time (UTC) | temp F | wind direction | speed knots | gust knots | rain 1hr in | rain 24hr in | rain mn in | humidity % | barometer mb |
| 20260504233748 | 64 | 285 | 0.0 | 0.0 | 0.00 | 0.00 | 0.00 | 40 | 1006.3 |
| 20260504233243 | 65 | 285 | 0.0 | 0.0 | 0.00 | 0.00 | 0.00 | 40 | 1006.3 |
| 20260504232740 | 66 | 285 | 0.0 | 0.0 | 0.00 | 0.00 | 0.00 | 40 | 1006.2 |
| 20260504232237 | 67 | 285 | 0.0 | 0.9 | 0.00 | 0.00 | 0.00 | 38 | 1006.2 |
| 20260504231735 | 67 | 285 | 0.0 | 1.7 | 0.00 | 0.00 | 0.00 | 38 | 1006.0 |
| 20260504231231 | 68 | 285 | 0.0 | 0.0 | 0.00 | 0.00 | 0.00 | 37 | 1005.9 |
| 20260504230727 | 68 | 272 | 0.9 | 4.3 | 0.00 | 0.00 | 0.00 | 36 | 1005.7 |
| 20260504230226 | 68 | 277 | 1.7 | 1.7 | 0.00 | 0.00 | 0.00 | 35 | 1005.8 |
| 20260504225724 | 68 | 349 | 2.6 | 4.3 | 0.00 | 0.00 | 0.00 | 34 | 1005.7 |
| 20260504225220 | 69 | 323 | 2.6 | 4.3 | 0.00 | 0.00 | 0.00 | 35 | 1005.6 |
| 20260504224717 | 69 | 306 | 0.9 | 0.9 | 0.00 | 0.00 | 0.00 | 35 | 1005.4 |
| 20260504224214 | 69 | 297 | 0.0 | 1.7 | 0.00 | 0.00 | 0.00 | 35 | 1005.5 |
| 20260504223711 | 69 | 289 | 0.9 | 0.9 | 0.00 | 0.00 | 0.00 | 35 | 1005.6 |
| 20260504223206 | 69 | 275 | 0.0 | 0.9 | 0.00 | 0.00 | 0.00 | 36 | 1005.5 |
| 20260504222703 | 69 | 282 | 0.9 | 5.2 | 0.00 | 0.00 | 0.00 | 34 | 1005.6 |
| 20260504222200 | 69 | 262 | 0.0 | 1.7 | 0.00 | 0.00 | 0.00 | 35 | 1005.5 |
| 20260504221658 | 69 | 308 | 2.6 | 2.6 | 0.00 | 0.00 | 0.00 | 34 | 1005.5 |
| 20260504221155 | 69 | 278 | 0.9 | 6.1 | 0.00 | 0.00 | 0.00 | 33 | 1005.5 |
| 20260504220651 | 70 | 308 | 1.7 | 6.1 | 0.00 | 0.00 | 0.00 | 33 | 1005.5 |
| 20260504220149 | 70 | 271 | 0.9 | 2.6 | 0.00 | 0.00 | 0.00 | 33 | 1005.4 |
| 20260504215645 | 70 | 252 | 0.9 | 2.6 | 0.00 | 0.00 | 0.00 | 33 | 1005.6 |
| 20260504215142 | 69 | 309 | 4.3 | 6.1 | 0.00 | 0.00 | 0.00 | 33 | 1005.5 |
| 20260504214638 | 70 | 326 | 1.7 | 5.2 | 0.00 | 0.00 | 0.00 | 33 | 1005.4 |
| 20260504214134 | 70 | 252 | 1.7 | 4.3 | 0.00 | 0.00 | 0.00 | 33 | 1005.5 |
| 20260504213631 | 69 | 298 | 2.6 | 7.0 | 0.00 | 0.00 | 0.00 | 33 | 1005.5 |
| 20260504213128 | 69 | 279 | 1.7 | 5.2 | 0.00 | 0.00 | 0.00 | 32 | 1005.4 |
| 20260504212624 | 70 | 314 | 2.6 | 6.1 | 0.00 | 0.00 | 0.00 | 32 | 1005.4 |
| 20260504212121 | 70 | 299 | 2.6 | 4.3 | 0.00 | 0.00 | 0.00 | 33 | 1005.6 |
| 20260504211619 | 71 | 301 | 2.6 | 8.7 | 0.00 | 0.00 | 0.00 | 32 | 1005.3 |
| 20260504211115 | 71 | 333 | 4.3 | 6.1 | 0.00 | 0.00 | 0.00 | 32 | 1005.4 |
| 20260504210613 | 71 | 324 | 1.7 | 5.2 | 0.00 | 0.00 | 0.00 | 33 | 1005.2 |
| 20260504210109 | 70 | 267 | 3.5 | 5.2 | 0.00 | 0.00 | 0.00 | 31 | 1005.1 |
| 20260504205607 | 70 | 274 | 2.6 | 4.3 | 0.00 | 0.00 | 0.00 | 32 | 1005.3 |
| 20260504205104 | 70 | 285 | 0.9 | 2.6 | 0.00 | 0.00 | 0.00 | 33 | 1005.3 |
| 20260504204602 | 70 | 288 | 2.6 | 5.2 | 0.00 | 0.00 | 0.00 | 32 | 1005.3 |
| 20260504204101 | 70 | 306 | 2.6 | 5.2 | 0.00 | 0.00 | 0.00 | 33 | 1005.3 |
| 20260504203559 | 69 | 282 | 1.7 | 7.0 | 0.00 | 0.00 | 0.00 | 33 | 1005.3 |
| 20260504203056 | 69 | 278 | 0.9 | 5.2 | 0.00 | 0.00 | 0.00 | 34 | 1005.1 |
| 20260504202551 | 70 | 25 | 2.6 | 7.0 | 0.00 | 0.00 | 0.00 | 33 | 1005.1 |
| 20260504202048 | 71 | 296 | 0.9 | 2.6 | 0.00 | 0.00 | 0.00 | 33 | 1005.4 |
| 20260504201545 | 70 | 277 | 0.9 | 5.2 | 0.00 | 0.00 | 0.00 | 34 | 1005.5 |
| 20260504201043 | 69 | 321 | 3.5 | 5.2 | 0.00 | 0.00 | 0.00 | 35 | 1005.6 |
| 20260504200539 | 69 | 248 | 1.7 | 2.6 | 0.00 | 0.00 | 0.00 | 34 | 1005.6 |
| 20260504200036 | 69 | 284 | 3.5 | 7.0 | 0.00 | 0.00 | 0.00 | 34 | 1005.6 |
| 20260504195532 | 69 | 278 | 1.7 | 6.1 | 0.00 | 0.00 | 0.00 | 34 | 1005.3 |
| 20260504195029 | 69 | 275 | 4.3 | 6.1 | 0.00 | 0.00 | 0.00 | 34 | 1005.4 |
| 20260504194526 | 70 | 311 | 1.7 | 7.0 | 0.00 | 0.00 | 0.00 | 34 | 1005.3 |
| 20260504194021 | 70 | 319 | 5.2 | 7.8 | 0.00 | 0.00 | 0.00 | 34 | 1005.4 |
| 20260504193518 | 70 | 291 | 1.7 | 5.2 | 0.00 | 0.00 | 0.00 | 35 | 1005.5 |
| 20260504193017 | 70 | 307 | 0.9 | 5.2 | 0.00 | 0.00 | 0.00 | 35 | 1005.5 |
| 20260504192515 | 70 | 277 | 1.7 | 2.6 | 0.00 | 0.00 | 0.00 | 35 | 1005.5 |
| 20260504192013 | 70 | 300 | 3.5 | 5.2 | 0.00 | 0.00 | 0.00 | 35 | 1005.5 |
| 20260504191510 | 69 | 286 | 0.9 | 7.8 | 0.00 | 0.00 | 0.00 | 36 | 1005.5 |
| 20260504191006 | 69 | 312 | 4.3 | 5.2 | 0.00 | 0.00 | 0.00 | 37 | 1005.6 |
| 20260504190502 | 69 | 301 | 0.9 | 9.6 | 0.00 | 0.00 | 0.00 | 37 | 1005.6 |
| 20260504185958 | 69 | 268 | 0.9 | 4.3 | 0.00 | 0.00 | 0.00 | 36 | 1005.5 |
| 20260504185455 | 68 | 285 | 3.5 | 7.0 | 0.00 | 0.00 | 0.00 | 37 | 1005.6 |
| 20260504184952 | 67 | 325 | 3.5 | 5.2 | 0.00 | 0.00 | 0.00 | 37 | 1005.7 |
| 20260504184447 | 65 | 290 | 0.9 | 1.7 | 0.00 | 0.00 | 0.00 | 40 | 1005.8 |
| 20260504183943 | 65 | 326 | 2.6 | 2.6 | 0.00 | 0.00 | 0.00 | 39 | 1006.0 |
| 20260504183441 | 65 | 199 | 2.6 | 7.0 | 0.00 | 0.00 | 0.00 | 39 | 1006.1 |
| 20260504182939 | 66 | 336 | 0.9 | 2.6 | 0.00 | 0.00 | 0.00 | 39 | 1006.0 |
| 20260504182435 | 66 | 295 | 2.6 | 7.0 | 0.00 | 0.00 | 0.00 | 38 | 1006.0 |
| 20260504181933 | 66 | 359 | 2.6 | 4.3 | 0.00 | 0.00 | 0.00 | 39 | 1005.8 |
| 20260504181429 | 66 | 308 | 2.6 | 7.0 | 0.00 | 0.00 | 0.00 | 37 | 1005.7 |
| 20260504180928 | 66 | 300 | 2.6 | 5.2 | 0.00 | 0.00 | 0.00 | 37 | 1005.7 |
| 20260504180427 | 66 | 305 | 1.7 | 4.3 | 0.00 | 0.00 | 0.00 | 36 | 1005.7 |
| 20260504175924 | 67 | 276 | 1.7 | 4.3 | 0.00 | 0.00 | 0.00 | 35 | 1005.7 |
| 20260504175421 | 67 | 329 | 4.3 | 9.6 | 0.00 | 0.00 | 0.00 | 35 | 1005.9 |
| 20260504174919 | 66 | 254 | 2.6 | 5.2 | 0.00 | 0.00 | 0.00 | 36 | 1005.8 |
| 20260504174416 | 66 | 323 | 1.7 | 5.2 | 0.00 | 0.00 | 0.00 | 36 | 1006.0 |
| 20260504173913 | 66 | 350 | 4.3 | 4.3 | 0.00 | 0.00 | 0.00 | 35 | 1005.9 |
| 20260504173409 | 67 | 2 | 4.3 | 6.1 | 0.00 | 0.00 | 0.00 | 35 | 1005.9 |
| 20260504172907 | 67 | 317 | 3.5 | 5.2 | 0.00 | 0.00 | 0.00 | 35 | 1005.9 |
| 20260504172403 | 67 | 355 | 2.6 | 6.1 | 0.00 | 0.00 | 0.00 | 34 | 1005.8 |
| 20260504171900 | 68 | 252 | 2.6 | 8.7 | 0.00 | 0.00 | 0.00 | 34 | 1005.9 |
| 20260504171357 | 66 | 307 | 0.9 | 4.3 | 0.00 | 0.00 | 0.00 | 35 | 1005.6 |
| 20260504170854 | 66 | 340 | 2.6 | 5.2 | 0.00 | 0.00 | 0.00 | 34 | 1005.8 |
| 20260504170350 | 67 | 325 | 2.6 | 7.0 | 0.00 | 0.00 | 0.00 | 34 | 1005.7 |
| 20260504160309 | 68 | 292 | 0.9 | 1.7 | 0.00 | 0.00 | 0.00 | 36 | 1005.7 |
| 20260504150734 | 64 | 117 | 2.6 | 5.2 | 0.00 | 0.00 | 0.00 | 43 | 1006.7 |
| 20260504150231 | 62 | 267 | 0.9 | 4.3 | 0.00 | 0.00 | 0.00 | 49 | 1006.8 |
| 20260504141200 | 60 | 211 | 1.7 | 2.6 | 0.00 | 0.00 | 0.00 | 46 | 1007.3 |
| 20260504140657 | 60 | 235 | 1.7 | 2.6 | 0.00 | 0.00 | 0.00 | 46 | 1007.4 |
| 20260504140152 | 59 | 267 | 0.9 | 1.7 | 0.00 | 0.00 | 0.00 | 48 | 1007.4 |
| 20260504130621 | 57 | 299 | 1.7 | 4.3 | 0.00 | 0.00 | 0.00 | 54 | 1008.2 |
| 20260504130118 | 57 | 302 | 2.6 | 2.6 | 0.00 | 0.00 | 0.00 | 55 | 1008.3 |
| 20260504110509 | 42 | 279 | 0.0 | 0.9 | 0.00 | 0.00 | 0.00 | 79 | 1009.1 |
| 20260504100431 | 37 | 284 | 0.0 | 0.0 | 0.00 | 0.00 | 0.00 | 84 | 1009.1 |
| 20260504081824 | 34 | 270 | 0.0 | 0.0 | 0.00 | 0.00 | 0.00 | 88 | 1008.9 |
| 20260504081321 | 34 | 270 | 0.0 | 0.0 | 0.00 | 0.00 | 0.00 | 88 | 1008.8 |
| 20260504080816 | 34 | 270 | 0.0 | 0.0 | 0.00 | 0.00 | 0.00 | 89 | 1008.9 |
| 20260504080314 | 34 | 273 | 0.0 | 0.0 | 0.00 | 0.00 | 0.00 | 89 | 1009.1 |
| 20260504070241 | 34 | 270 | 0.0 | 0.0 | 0.00 | 0.00 | 0.00 | 84 | 1009.0 |
| 20260504060201 | 33 | 273 | 0.0 | 0.0 | 0.00 | 0.00 | 0.00 | 89 | 1008.7 |
| 20260504050629 | 33 | 272 | 0.0 | 0.0 | 0.00 | 0.00 | 0.00 | 87 | 1008.8 |
| 20260504050127 | 33 | 270 | 0.0 | 0.0 | 0.00 | 0.00 | 0.00 | 88 | 1008.6 |
| 20260504045624 | 33 | 271 | 0.0 | 0.0 | 0.00 | 0.00 | 0.00 | 90 | 1008.9 |
| 20260504045118 | 32 | 283 | 0.0 | 0.0 | 0.00 | 0.00 | 0.00 | 91 | 1008.8 |
| 20260504044616 | 32 | 269 | 0.0 | 0.0 | 0.00 | 0.00 | 0.00 | 92 | 1008.6 |
| 20260504044113 | 32 | 280 | 0.0 | 0.0 | 0.00 | 0.00 | 0.00 | 92 | 1008.9 |
| 20260504043610 | 32 | 269 | 0.0 | 0.0 | 0.00 | 0.00 | 0.00 | 92 | 1008.8 |
| 20260504043107 | 33 | 274 | 0.0 | 0.0 | 0.00 | 0.00 | 0.00 | 91 | 1008.8 |
| 20260504042604 | 33 | 268 | 0.0 | 0.0 | 0.00 | 0.00 | 0.00 | 91 | 1008.7 |
| 20260504042101 | 33 | 269 | 0.0 | 0.0 | 0.00 | 0.00 | 0.00 | 91 | 1008.6 |
| 20260504041557 | 33 | 272 | 0.0 | 0.0 | 0.00 | 0.00 | 0.00 | 90 | 1008.6 |
| 20260504041053 | 33 | 269 | 0.0 | 0.0 | 0.00 | 0.00 | 0.00 | 90 | 1008.6 |
| 20260504040551 | 33 | 270 | 0.0 | 0.0 | 0.00 | 0.00 | 0.00 | 89 | 1008.6 |
| 20260504040047 | 33 | 270 | 0.0 | 0.0 | 0.00 | 0.00 | 0.00 | 88 | 1008.6 |
| 20260504035544 | 33 | 269 | 0.0 | 0.0 | 0.00 | 0.00 | 0.00 | 87 | 1008.5 |
| 20260504035040 | 34 | 269 | 0.0 | 0.0 | 0.00 | 0.00 | 0.00 | 87 | 1008.5 |
| 20260504034539 | 34 | 268 | 0.0 | 0.0 | 0.00 | 0.00 | 0.00 | 86 | 1008.5 |
| 20260504034035 | 35 | 273 | 0.0 | 0.0 | 0.00 | 0.00 | 0.00 | 86 | 1008.4 |
| 20260504033533 | 35 | 273 | 0.0 | 0.0 | 0.00 | 0.00 | 0.00 | 85 | 1008.4 |
| 20260504033030 | 35 | 276 | 0.0 | 0.0 | 0.00 | 0.00 | 0.00 | 86 | 1008.3 |
| 20260504032527 | 35 | 270 | 0.0 | 0.0 | 0.00 | 0.00 | 0.00 | 83 | 1008.4 |
| 20260504032024 | 35 | 274 | 0.0 | 0.0 | 0.00 | 0.00 | 0.00 | 83 | 1008.3 |
| 20260504031521 | 35 | 274 | 0.0 | 0.0 | 0.00 | 0.00 | 0.00 | 83 | 1008.3 |
| 20260504031017 | 35 | 270 | 0.0 | 0.0 | 0.00 | 0.00 | 0.00 | 84 | 1008.2 |
| 20260504030515 | 35 | 269 | 0.0 | 0.0 | 0.00 | 0.00 | 0.00 | 84 | 1008.2 |
| 20260504030010 | 35 | 268 | 0.0 | 0.0 | 0.00 | 0.00 | 0.00 | 85 | 1008.5 |
| 20260504025508 | 35 | 276 | 0.0 | 0.9 | 0.00 | 0.00 | 0.00 | 84 | 1008.4 |
| 20260504025005 | 36 | 278 | 0.0 | 0.0 | 0.00 | 0.00 | 0.00 | 84 | 1008.3 |
| 20260504024502 | 36 | 276 | 0.0 | 0.0 | 0.00 | 0.00 | 0.00 | 83 | 1008.3 |
| 20260504023959 | 36 | 272 | 0.0 | 0.0 | 0.00 | 0.00 | 0.00 | 82 | 1008.3 |
| 20260504023455 | 36 | 274 | 0.0 | 0.0 | 0.00 | 0.00 | 0.00 | 82 | 1008.2 |
| 20260504022950 | 37 | 273 | 0.0 | 0.0 | 0.00 | 0.00 | 0.00 | 82 | 1008.3 |
| 20260504022447 | 37 | 272 | 0.0 | 0.0 | 0.00 | 0.00 | 0.00 | 80 | 1008.2 |
| 20260504021944 | 37 | 277 | 0.0 | 0.0 | 0.00 | 0.00 | 0.00 | 79 | 1008.3 |
| 20260504021441 | 37 | 277 | 0.0 | 0.0 | 0.00 | 0.00 | 0.00 | 79 | 1008.3 |
| 20260504020938 | 37 | 270 | 0.0 | 0.0 | 0.00 | 0.00 | 0.00 | 80 | 1008.3 |
| 20260504020434 | 37 | 272 | 0.0 | 0.0 | 0.00 | 0.00 | 0.00 | 79 | 1008.3 |
| 20260504015931 | 37 | 273 | 0.0 | 0.0 | 0.00 | 0.00 | 0.00 | 79 | 1008.3 |
| 20260504015427 | 37 | 272 | 0.0 | 0.0 | 0.00 | 0.00 | 0.00 | 79 | 1008.4 |
| 20260504014923 | 38 | 269 | 0.0 | 0.0 | 0.00 | 0.00 | 0.00 | 80 | 1008.1 |
| 20260504014420 | 38 | 272 | 0.0 | 0.0 | 0.00 | 0.00 | 0.00 | 78 | 1008.2 |
| 20260504013916 | 38 | 268 | 0.0 | 0.0 | 0.00 | 0.00 | 0.00 | 78 | 1008.3 |
| 20260504013415 | 38 | 268 | 0.0 | 0.0 | 0.00 | 0.00 | 0.00 | 76 | 1008.1 |
| 20260504012911 | 39 | 267 | 0.0 | 0.0 | 0.00 | 0.00 | 0.00 | 77 | 1008.1 |
| 20260504012409 | 39 | 266 | 0.0 | 0.0 | 0.00 | 0.00 | 0.00 | 76 | 1008.0 |
| 20260504011906 | 39 | 266 | 0.0 | 0.0 | 0.00 | 0.00 | 0.00 | 75 | 1008.0 |
| 20260504011403 | 39 | 266 | 0.0 | 0.0 | 0.00 | 0.00 | 0.00 | 75 | 1008.1 |
| 20260504010859 | 39 | 269 | 0.0 | 0.0 | 0.00 | 0.00 | 0.00 | 74 | 1007.9 |
| 20260504010355 | 39 | 266 | 0.0 | 0.9 | 0.00 | 0.00 | 0.00 | 74 | 1007.9 |
| 20260504005851 | 40 | 272 | 0.0 | 0.9 | 0.00 | 0.00 | 0.00 | 73 | 1007.9 |
| 20260504005348 | 39 | 276 | 0.0 | 0.0 | 0.00 | 0.00 | 0.00 | 74 | 1007.9 |
| 20260504004845 | 40 | 274 | 0.0 | 0.9 | 0.00 | 0.00 | 0.00 | 73 | 1007.6 |
| 20260504004343 | 40 | 273 | 0.0 | 0.0 | 0.00 | 0.00 | 0.00 | 73 | 1007.7 |
| 20260504003839 | 41 | 268 | 0.0 | 0.0 | 0.00 | 0.00 | 0.00 | 72 | 1007.7 |
| 20260504003336 | 42 | 270 | 0.0 | 0.0 | 0.00 | 0.00 | 0.00 | 68 | 1007.6 |
| 20260504002833 | 42 | 274 | 0.0 | 0.0 | 0.00 | 0.00 | 0.00 | 66 | 1007.5 |
| 20260504002330 | 43 | 274 | 0.0 | 0.0 | 0.00 | 0.00 | 0.00 | 63 | 1007.5 |
| 20260504001828 | 44 | 285 | 0.0 | 0.9 | 0.00 | 0.00 | 0.00 | 59 | 1007.4 |
| 20260504001325 | 45 | 286 | 0.9 | 0.9 | 0.00 | 0.00 | 0.00 | 56 | 1007.2 |
| 20260504000821 | 45 | 288 | 0.9 | 1.7 | 0.00 | 0.00 | 0.00 | 54 | 1007.3 |
| 20260504000318 | 46 | 280 | 0.9 | 1.7 | 0.00 | 0.00 | 0.00 | 53 | 1007.1 |
| 20260503235816 | 46 | 297 | 0.0 | 1.7 | 0.00 | 0.00 | 0.00 | 52 | 1007.1 |
| 20260503235314 | 46 | 283 | 0.9 | 2.6 | 0.00 | 0.00 | 0.00 | 52 | 1007.0 |
| 20260503234811 | 46 | 279 | 0.0 | 0.9 | 0.00 | 0.00 | 0.00 | 52 | 1007.0 |
| 20260503234309 | 47 | 213 | 1.7 | 5.2 | 0.00 | 0.00 | 0.00 | 50 | 1006.9 |